KUIPER-00241

导读

KUIPER-00241是美国亚马逊柯伊伯低轨互联网星座中的一颗卫星,于2025年12月15日发射。该星座旨在为全球提供高速低延迟天基互联网服务,采用先进相控阵天线与激光星间链路技术,可按需灵活分配通信容量。 作为组网卫星,它工作于近地轨道,配备Ka频段通信系统,配合地面基础设施,可实现覆盖全球的宽带接入,满足视频、云服务等多场景需求,助力亚马逊构建天地融合的太空通信与云服务网络。

Basic Information
目录编号:
67149
目录名称:
KUIPER-00241
国际标识:
2025-301S
轨道中心:
EARTH
卫星名称:
KUIPER-00241
卫星全名:
KUIPER-00241
卫星状态:
在轨 (已飞行264 天)
发射日期:
2025-12-15 UTC
国别 :
美国 (US)
星等 :
--
Orbit Information
数据来源 国际轨道数据 AOE轨道数据
星历时间 2026-09-05T15:28:19+0800
8小时前
查看轨道信息
2026-09-01T08:00:00+0800
4天前
查看轨道信息
半长轴 7007.683km 7007.65km
偏心率 0.0000434 0.0000033
轨道倾角 51.904° 51.905°
近地点辐角 116.942° 33.525°
升交点赤经 1.376° 20.439°
平近点角 243.159° 23.053°
近地点 629.241km 629.489km
远地点 629.851km 629.537km
周期 97.302分钟 97.301分钟
每日圈数 14.799298 14.799402
Detailed Information
使用方式:
暂无
2D Orbit Map
3D Orbit Map
Orbit Altitude Analysis Chart
Orbit Inclination Analysis Chart
Orbit Comprehensive Analysis Chart
View Comprehensive Chart